Location: Unspecified
(0.0000°N, 0.0000°E)
Time: 05:59:43
(UTC+00:00)

CUTE 1.7 + AOD 2 - Pass Details

Date: 09 December 2017
Orbit: 595 x 613 km, 97.6° (Epoch: 17 January)

Event Time Altitude Azimuth Distance (km) Brightness Sun altitude
Rises 18:09:11 0° 152° (SSE) 2,836 ? -3.8°
Reaches altitude 10° 18:11:32 10° 141° (SE) 1,934 ? -4.4°
Maximum altitude 18:15:16 31° 79° (ENE) 1,049 ? -5.2°
Drops below altitude 10° 18:19:00 10° 16° (NNE) 1,935 ? -6.1°
Sets 18:21:21 0° 6° (N) 2,837 ? -6.6°
